TimeCEST,TemperatureF,Dew PointF,Humidity,Sea Level PressureIn,VisibilityMPH,Wind Direction,Wind SpeedMPH,Gust SpeedMPH,PrecipitationIn,Events,Conditions,WindDirDegrees,DateUTC
12:00 AM,50.0,46.4,87,30.06,6.2,NNE,3.5,-,N/A,,Unknown,20,2012-10-04 22:00:00
12:30 AM,48.2,44.6,87,30.09,6.2,Calm,Calm,-,N/A,,Unknown,0,2012-10-04 22:30:00
1:00 AM,48.2,44.6,87,30.09,6.2,North,1.2,-,N/A,,Unknown,360,2012-10-04 23:00:00
1:30 AM,48.2,44.6,87,30.09,6.2,NNE,2.3,-,N/A,,Unknown,30,2012-10-04 23:30:00
2:00 AM,46.4,44.6,93,30.09,6.2,Calm,Calm,-,N/A,,Unknown,0,2012-10-05 00:00:00
2:30 AM,48.2,46.4,93,30.09,6.2,NNE,3.5,-,N/A,,Unknown,20,2012-10-05 00:30:00
3:00 AM,46.4,44.6,93,30.09,6.2,NNE,1.2,-,N/A,,Unknown,30,2012-10-05 01:00:00
3:30 AM,46.4,42.8,87,30.09,6.2,North,1.2,-,N/A,,Unknown,360,2012-10-05 01:30:00
4:00 AM,46.4,44.6,93,30.09,6.2,North,2.3,-,N/A,,Unknown,360,2012-10-05 02:00:00
4:30 AM,48.2,44.6,87,30.09,6.2,NNE,3.5,-,N/A,,Unknown,20,2012-10-05 02:30:00
5:00 AM,51.8,51.8,100,30.09,6.2,NE,2.3,-,N/A,,Unknown,50,2012-10-05 03:00:00
5:30 AM,48.2,46.4,93,30.09,4.3,Calm,Calm,-,N/A,,Unknown,0,2012-10-05 03:30:00
6:00 AM,50.0,48.2,94,30.09,0.4,Variable,1.2,-,N/A,Fog,Fog,0,2012-10-05 04:00:00
6:30 AM,53.6,51.8,94,30.09,6.2,East,3.5,-,N/A,,Unknown,80,2012-10-05 04:30:00
7:00 AM,50.0,48.2,94,30.09,6.2,North,3.5,-,N/A,,Unknown,350,2012-10-05 05:00:00
7:30 AM,48.2,46.4,93,30.09,5.6,North,2.3,-,N/A,,Unknown,350,2012-10-05 05:30:00
8:00 AM,50.0,48.2,94,30.09,6.2,North,2.3,-,N/A,,Unknown,360,2012-10-05 06:00:00
8:30 AM,55.4,55.4,100,30.12,6.2,Calm,Calm,-,N/A,,Unknown,0,2012-10-05 06:30:00
9:00 AM,62.6,60.8,94,30.12,6.2,ENE,4.6,-,N/A,,Unknown,70,2012-10-05 07:00:00
9:30 AM,68.0,60.8,78,30.12,6.2,ENE,6.9,-,N/A,,Unknown,70,2012-10-05 07:30:00
10:00 AM,69.8,60.8,73,30.12,6.2,ENE,6.9,-,N/A,,Unknown,60,2012-10-05 08:00:00
10:30 AM,73.4,62.6,69,30.12,6.2,East,8.1,-,N/A,,Unknown,90,2012-10-05 08:30:00
11:00 AM,73.4,60.8,65,30.12,6.2,ENE,5.8,-,N/A,,Unknown,60,2012-10-05 09:00:00
11:30 AM,75.2,60.8,61,30.12,6.2,ENE,8.1,-,N/A,,Unknown,60,2012-10-05 09:30:00
12:00 PM,75.2,60.8,61,30.12,6.2,East,8.1,-,N/A,,Unknown,80,2012-10-05 10:00:00
12:30 PM,77.0,60.8,57,30.12,6.2,East,6.9,-,N/A,,Unknown,90,2012-10-05 10:30:00
1:00 PM,77.0,62.6,61,30.12,6.2,ENE,8.1,-,N/A,,Unknown,70,2012-10-05 11:00:00
1:30 PM,77.0,62.6,61,30.12,6.2,East,9.2,-,N/A,,Unknown,80,2012-10-05 11:30:00
2:00 PM,77.0,62.6,61,30.12,6.2,East,9.2,-,N/A,,Unknown,80,2012-10-05 12:00:00
2:30 PM,77.0,62.6,61,30.12,6.2,East,10.4,-,N/A,,Unknown,80,2012-10-05 12:30:00
3:00 PM,77.0,62.6,61,30.12,6.2,East,9.2,-,N/A,,Unknown,80,2012-10-05 13:00:00
3:30 PM,77.0,62.6,61,30.09,6.2,ENE,8.1,-,N/A,,Unknown,70,2012-10-05 13:30:00
4:00 PM,77.0,62.6,61,30.09,6.2,East,9.2,-,N/A,,Unknown,80,2012-10-05 14:00:00
4:30 PM,75.2,62.6,65,30.09,6.2,ENE,11.5,-,N/A,,Unknown,60,2012-10-05 14:30:00
5:00 PM,75.2,62.6,65,30.09,6.2,East,10.4,-,N/A,,Unknown,90,2012-10-05 15:00:00
5:30 PM,73.4,62.6,69,30.09,6.2,East,10.4,-,N/A,,Unknown,80,2012-10-05 15:30:00
6:00 PM,73.4,62.6,69,30.09,6.2,East,10.4,-,N/A,,Unknown,80,2012-10-05 16:00:00
6:30 PM,71.6,62.6,73,30.09,6.2,East,9.2,-,N/A,,Unknown,80,2012-10-05 16:30:00
7:00 PM,69.8,62.6,78,30.12,6.2,East,8.1,-,N/A,,Unknown,80,2012-10-05 17:00:00
7:30 PM,68.0,62.6,83,30.12,6.2,ENE,6.9,-,N/A,,Unknown,70,2012-10-05 17:30:00
8:00 PM,68.0,62.6,83,30.12,6.2,ENE,9.2,-,N/A,,Unknown,70,2012-10-05 18:00:00
8:30 PM,66.2,62.6,88,30.12,6.2,East,6.9,-,N/A,,Unknown,80,2012-10-05 18:30:00
9:00 PM,66.2,62.6,88,30.12,6.2,ENE,8.1,-,N/A,,Unknown,70,2012-10-05 19:00:00
9:30 PM,66.2,62.6,88,30.12,6.2,ENE,6.9,-,N/A,,Unknown,70,2012-10-05 19:30:00
10:00 PM,64.4,60.8,88,30.12,6.2,ENE,6.9,-,N/A,,Unknown,70,2012-10-05 20:00:00
10:30 PM,64.4,60.8,88,30.12,6.2,ENE,6.9,-,N/A,,Unknown,70,2012-10-05 20:30:00
11:00 PM,64.4,60.8,88,30.12,6.2,ENE,6.9,-,N/A,,Unknown,70,2012-10-05 21:00:00
11:30 PM,64.4,60.8,88,30.12,6.2,ENE,6.9,-,N/A,,Unknown,70,2012-10-05 21:30:00